Dauntless Aviation
Airports Asia Indonesia
WIHH
HLP

Halim Perdanakusuma International Airport

Jakarta, INDONESIA

Airport Info
Suggest Updated Information for this Airport

Location

Latitude / Longitude: 6°15'59"S / 106°53'27"E
  6°15.996'S / 106°53.46'E
  -6.2666 / 106.8910

Nearby radio navigation aids

AL HALIM PERDANAKUSUMA NDB. 243.5° 9.9nm from AL to field.
HLM HALIM PERDANAKUSUMA VOR/DME on field.

Runway Information

Runway 06 /24

Dimensions: 9843 x 197 ft.
Surface: ASP
 
Runway 06
Runway 24
Latitude: -6.272253 -6.261711
Longitude: 106.878792 106.9018
Elevation: 79 ft. 79 ft.
Runway true heading: 64 244
 

Instrument Procedures

  Aerodrome Chart

IAPs (Instrument Approach Procedures)

  ILS Rwy 24
  VOR Rwy 24
  VOR/DME Rwy 24
  VOR Rwy 06
  NDB Rwy 24

Departure Procedures

  SID 2M Departures
  SID 1H/ 2H Departures
Satellite photo at:
Airport distance calculator
From:
Weather Reports

METAR

WIII
15.6nm W
WIII 191830Z VRB02KT 4000 BR BKN020 26/26 Q1009 NOSIG

TAF

WIHH
TAF WIHH 191700Z 1918/2018 17005KT 5000 HZ FEW020 TEMPO 1921/1923 4000 -RA BKN014 BECMG 2001/2003 25007KT 6000 SCT018 TEMPO 2005/2008 34012KT 3000 RA FEW017CB SCT016
WIII
15.6nm W
TAF WIII 191700Z 1918/2024 26004KT 4000 -RA FEW018CB SCT020 TEMPO 1918/1922 3000 -TSRA SCT018CB BKN020 BECMG 2002/2004 30012KT 9000 SCT022
Safelog

 

Dauntless Aviation

© 2007-2017 Dauntless Aviation, all rights reserved
Information provided via PilotNav comes from a variety of official and unofficial data sources. As errors are possible, do not use PilotNav for primary flight planning purposes. Verify any information that you receive via PilotNav with current and canonical charts and other official documents. The material in this database is subject to database copyrights held by Dauntless Aviation and may not be copied without the express permission of Dauntless Aviation - licenses for use of part of all of this data are available for purchase; enquire via the Dauntless Aviation helpdesk. A number of mechanisms and markers exist in the database to protect against and identify infringement / copyright. Automated queries against this website are stictly prohibited, and all activity is logged and analyzed.